Sierra Vista, AZ

11:01 AM MST on December 14, 2017 (GMT -0700)
Sierra Vista Municipal-Libby Army Air Field

Weather History for KFHU - November, 2012

Change the Weather History Date:

Thursday, November 22, 2012

  Actual Average Record
Temperature  
Mean Temperature 62 °F -  
Max Temperature 75 °F 64 °F 77 °F (2002)
Min Temperature 48 °F 42 °F 27 °F (1983)
Degree Days  
Heating Degree Days 4    
Growing Degree Days 12 (Base 50)    
Moisture  
Dew Point 28 °F    
Average Humidity 31    
Maximum Humidity 50    
Minimum Humidity 16    
Precipitation  
Precipitation 0.00 in - - ()
Sea Level Pressure  
Sea Level Pressure 30.06 in    
Wind  
Wind Speed 5 mph (SW)    
Max Wind Speed 10 mph    
Max Gust Speed -    
Visibility 10 miles    
Events      
Averages and records for this station are not official NWS values.
T = Trace of Precipitation, MM = Missing Value Source: NWS Daily Summary

Daily Weather History Graph

Daily Weather History Graph

Search for Another Location

Airport or City:

Trip Planner

Search our weather history database for the weather conditions in past years. The results will help you decide how hot, cold, wet, or windy it might be!

Date:

Astronomy

Nov. 22, 2012 Rise Set
Actual Time 6:55 AM MST 5:19 PM MST
Civil Twilight 6:29 AM MST 5:45 PM MST
Nautical Twilight 6:00 AM MST 6:15 PM MST
Astronomical Twilight 5:30 AM MST 6:44 PM MST
Moon 1:50 PM MST (11/22) 1:37 AM MST (11/22)
Length of Visible Light 11h 15m
Length of Day
10h 23m
Waxing Gibbous, 72% of the Moon is Illuminated
Nov 22
Waxing Gibbous
Nov 28
Full
Dec 6
Last Quarter
Dec 13
New
Dec 19
First Quarter

Hourly Weather History & Observations

Time (MST) Temp. Dew Point Humidity Pressure Visibility Wind Dir Wind Speed Gust Speed Precip Events Conditions
12:56 AM 52.0 °F 33.1 °F 49% 30.02 in 10.0 mi South 6.9 mph - N/A   Clear
1:56 AM 53.1 °F 28.9 °F 40% 30.01 in 10.0 mi SW 8.1 mph - N/A   Clear
2:56 AM 53.1 °F 30.0 °F 41% 30.00 in 10.0 mi South 5.8 mph - N/A   Clear
3:56 AM 50.0 °F 30.0 °F 46% 30.01 in 10.0 mi Calm Calm - N/A   Clear
4:56 AM 53.1 °F 30.0 °F 41% 30.01 in 10.0 mi Calm Calm - N/A   Clear
5:56 AM 48.9 °F 30.9 °F 50% 30.05 in 10.0 mi Calm Calm - N/A   Clear
6:56 AM 48.9 °F 30.0 °F 48% 30.08 in 10.0 mi WNW 5.8 mph - N/A   Clear
7:56 AM 54.0 °F 32.0 °F 43% 30.09 in 10.0 mi West 6.9 mph - N/A   Clear
8:56 AM 61.0 °F 32.0 °F 34% 30.09 in 10.0 mi WNW 3.5 mph - N/A   Clear
9:56 AM 64.9 °F 32.0 °F 29% 30.10 in 10.0 mi Calm Calm - N/A   Clear
10:56 AM 69.1 °F 30.9 °F 24% 30.08 in 10.0 mi Calm Calm - N/A   Clear
11:56 AM 72.0 °F 23.0 °F 16% 30.07 in 10.0 mi ESE 4.6 mph - N/A   Clear
12:56 PM 73.9 °F 26.1 °F 17% 30.04 in 10.0 mi Calm Calm - N/A   Clear
1:56 PM 73.9 °F 27.0 °F 18% 30.02 in 10.0 mi Variable 4.6 mph - N/A   Clear
2:56 PM 73.9 °F 27.0 °F 18% 30.01 in 10.0 mi SSE 6.9 mph - N/A   Clear
3:56 PM 75.0 °F 28.0 °F 18% 30.02 in 10.0 mi Calm Calm - N/A   Clear
4:56 PM 71.1 °F 27.0 °F 19% 30.04 in 10.0 mi NNE 5.8 mph - N/A   Clear
5:56 PM 63.0 °F 28.0 °F 27% 30.09 in 10.0 mi WSW 10.4 mph - N/A   Clear
6:56 PM 62.1 °F 27.0 °F 26% 30.11 in 10.0 mi WSW 10.4 mph - N/A   Clear
7:56 PM 60.1 °F 26.1 °F 27% 30.12 in 10.0 mi SW 9.2 mph - N/A   Clear
8:56 PM 57.9 °F 27.0 °F 31% 30.12 in 10.0 mi SW 5.8 mph - N/A   Clear
9:56 PM 57.0 °F 25.0 °F 29% 30.12 in 10.0 mi Calm Calm - N/A   Clear
10:56 PM 55.9 °F 23.0 °F 28% 30.12 in 10.0 mi SSW 4.6 mph - N/A   Clear
11:56 PM 54.0 °F 24.1 °F 31% 30.12 in 10.0 mi SW 5.8 mph - N/A   Clear